When you browse on this site, cookies collect data to enhance your experience and personalize the content and advertising you see.
Visit our Privacy Policy to learn more. By continuing to use the site, you agree to this use of cookies and data.
  • în România
  • Lista ţărilor
  • Pe 7 zile
  • Temperatura apei
  • Hartă satelitară
  • Meteo pe hartă
  • Widget-uri
  • user-avatar
    Intrare

    Meteo pe oră la Schiltigheim

    Astăzi, 20 Iunie, Joi

    Timp Temperatura Precipitaţii Vânt Presiune Umiditate
    00:00 +19°C° 0.4 mm 2 m/s 746 mmHg 83%
    01:00 +20°C° 0 mm 1 m/s 746 mmHg 85%
    02:00 +19°C° 0.6 mm 1 m/s 747 mmHg 87%
    03:00 +19°C° 0.6 mm 1 m/s 747 mmHg 88%
    04:00 +18°C° 0.6 mm 2 m/s 747 mmHg 90%
    05:00 +18°C° 0.1 mm 2 m/s 747 mmHg 89%
    06:00 +19°C° 0.1 mm 2 m/s 747 mmHg 88%
    07:00 +19°C° 0.1 mm 2 m/s 748 mmHg 87%
    08:00 +20°C° 0.2 mm 2 m/s 748 mmHg 82%
    09:00 +21°C° 0.2 mm 2 m/s 748 mmHg 77%
    10:00 +23°C° 0.2 mm 2 m/s 748 mmHg 72%
    11:00 +24°C° 0.8 mm 2 m/s 748 mmHg 70%
    12:00 +24°C° 0.8 mm 2 m/s 748 mmHg 68%
    13:00 +25°C° 0.8 mm 3 m/s 748 mmHg 65%
    14:00 +25°C° 1.1 mm 3 m/s 747 mmHg 68%
    15:00 +24°C° 1.1 mm 3 m/s 747 mmHg 71%
    16:00 +24°C° 1.1 mm 3 m/s 747 mmHg 73%
    17:00 +22°C° 0.7 mm 3 m/s 748 mmHg 76%
    18:00 +23°C° 0.7 mm 2 m/s 748 mmHg 78%
    19:00 +21°C° 0.7 mm 2 m/s 748 mmHg 81%
    20:00 +20°C° 0.1 mm 2 m/s 748 mmHg 84%
    21:00 +19°C° 0.1 mm 2 m/s 749 mmHg 86%
    22:00 +18°C° 0.1 mm 1 m/s 749 mmHg 89%
    23:00 +17°C° 0 mm 2 m/s 749 mmHg 89%

    Mâine, 21 Iunie, Vineri

    Timp Temperatura Precipitaţii Vânt Presiune Umiditate
    00:00 +16°C° 0 mm 2 m/s 750 mmHg 90%
    01:00 +16°C° 0 mm 2 m/s 750 mmHg 90%
    02:00 +15°C° 0 mm 1 m/s 750 mmHg 90%
    03:00 +15°C° 0 mm 1 m/s 750 mmHg 91%
    04:00 +15°C° 0 mm 1 m/s 750 mmHg 91%
    05:00 +15°C° 0 mm 1 m/s 750 mmHg 89%
    06:00 +16°C° 0 mm 1 m/s 751 mmHg 86%
    07:00 +18°C° 0 mm 1 m/s 751 mmHg 84%
    08:00 +19°C° 0 mm 1 m/s 751 mmHg 77%
    09:00 +20°C° 0 mm 2 m/s 751 mmHg 71%
    10:00 +21°C° 0 mm 2 m/s 751 mmHg 65%
    11:00 +23°C° 0 mm 2 m/s 751 mmHg 62%
    12:00 +24°C° 0 mm 2 m/s 751 mmHg 60%
    13:00 +25°C° 0 mm 2 m/s 751 mmHg 57%
    14:00 +25°C° 0 mm 2 m/s 750 mmHg 58%
    15:00 +25°C° 0 mm 2 m/s 750 mmHg 58%
    16:00 +25°C° 0 mm 2 m/s 750 mmHg 58%
    17:00 +24°C° 0.1 mm 2 m/s 750 mmHg 62%
    18:00 +24°C° 0.1 mm 2 m/s 750 mmHg 66%
    19:00 +23°C° 0.1 mm 2 m/s 750 mmHg 70%
    20:00 +21°C° 0 mm 2 m/s 750 mmHg 71%
    21:00 +19°C° 0 mm 2 m/s 751 mmHg 73%
    22:00 +18°C° 0 mm 2 m/s 751 mmHg 74%
    23:00 +17°C° 0 mm 2 m/s 751 mmHg 73%

    Poimâine, 22 Iunie, Sâmbătă

    Timp Temperatura Precipitaţii Vânt Presiune Umiditate
    00:00 +17°C° 0 mm 2 m/s 750 mmHg 72%
    01:00 +16°C° 0 mm 2 m/s 750 mmHg 71%
    02:00 +16°C° 0 mm 2 m/s 750 mmHg 71%
    03:00 +16°C° 0 mm 2 m/s 750 mmHg 70%
    04:00 +16°C° 0 mm 2 m/s 750 mmHg 70%
    05:00 +17°C° 0.1 mm 3 m/s 750 mmHg 74%
    06:00 +17°C° 0.1 mm 3 m/s 750 mmHg 78%
    07:00 +17°C° 0.1 mm 3 m/s 750 mmHg 82%
    08:00 +18°C° 0.1 mm 3 m/s 750 mmHg 82%
    09:00 +19°C° 0.1 mm 2 m/s 750 mmHg 82%
    10:00 +19°C° 0.1 mm 2 m/s 750 mmHg 82%
    11:00 +20°C° 0.4 mm 2 m/s 750 mmHg 81%
    12:00 +21°C° 0.4 mm 2 m/s 750 mmHg 79%
    13:00 +23°C° 0.4 mm 2 m/s 750 mmHg 78%
    14:00 +23°C° 1.4 mm 2 m/s 750 mmHg 78%
    15:00 +23°C° 1.4 mm 2 m/s 750 mmHg 78%
    16:00 +23°C° 1.4 mm 2 m/s 750 mmHg 79%
    17:00 +23°C° 0.5 mm 2 m/s 750 mmHg 79%
    18:00 +23°C° 0.5 mm 2 m/s 750 mmHg 79%
    19:00 +23°C° 0.5 mm 1 m/s 750 mmHg 80%
    20:00 +21°C° 0 mm 1 m/s 751 mmHg 82%
    21:00 +20°C° 0 mm 1 m/s 751 mmHg 85%
    22:00 +18°C° 0 mm 1 m/s 751 mmHg 87%
    23:00 +18°C° 0 mm 1 m/s 751 mmHg 89%

    23 Iunie, Duminică

    Timp Temperatura Precipitaţii Vânt Presiune Umiditate
    00:00 +16°C° 0 mm 1 m/s 751 mmHg 90%
    01:00 +16°C° 0 mm 1 m/s 751 mmHg 91%
    02:00 +16°C° 0 mm 1 m/s 751 mmHg 91%
    03:00 +15°C° 0 mm 1 m/s 751 mmHg 92%
    04:00 +15°C° 0 mm 1 m/s 751 mmHg 93%
    05:00 +16°C° 0 mm 1 m/s 751 mmHg 91%
    06:00 +18°C° 0 mm 1 m/s 751 mmHg 89%
    07:00 +19°C° 0 mm 1 m/s 751 mmHg 87%
    08:00 +19°C° 0 mm 2 m/s 752 mmHg 82%
    09:00 +21°C° 0 mm 2 m/s 752 mmHg 77%
    10:00 +22°C° 0 mm 3 m/s 752 mmHg 72%
    11:00 +25°C° 0 mm 3 m/s 751 mmHg 68%
    12:00 +26°C° 0 mm 3 m/s 751 mmHg 65%
    13:00 +27°C° 0 mm 3 m/s 751 mmHg 62%
    14:00 +27°C° 0 mm 3 m/s 751 mmHg 61%
    15:00 +28°C° 0 mm 3 m/s 751 mmHg 61%
    16:00 +28°C° 0 mm 3 m/s 751 mmHg 60%
    17:00 +27°C° 0 mm 3 m/s 751 mmHg 65%
    18:00 +27°C° 0 mm 3 m/s 751 mmHg 69%
    19:00 +26°C° 0 mm 3 m/s 751 mmHg 73%
    20:00 +25°C° 0 mm 3 m/s 751 mmHg 77%
    21:00 +24°C° 0 mm 3 m/s 751 mmHg 80%
    22:00 +21°C° 0 mm 3 m/s 751 mmHg 83%
    23:00 +21°C° 0 mm 2 m/s 752 mmHg 85%

    24 Iunie, Luni

    Timp Temperatura Precipitaţii Vânt Presiune Umiditate
    00:00 +20°C° 0 mm 2 m/s 752 mmHg 87%
    01:00 +20°C° 0 mm 1 m/s 752 mmHg 89%
    02:00 +20°C° 0 mm 1 m/s 751 mmHg 90%
    03:00 +20°C° 0 mm 1 m/s 751 mmHg 90%
    04:00 +19°C° 0 mm 1 m/s 751 mmHg 91%
    05:00 +20°C° 0 mm 1 m/s 752 mmHg 88%
    06:00 +21°C° 0 mm 1 m/s 752 mmHg 86%
    07:00 +21°C° 0 mm 1 m/s 752 mmHg 83%
    08:00 +23°C° 0 mm 1 m/s 752 mmHg 78%
    09:00 +25°C° 0 mm 1 m/s 752 mmHg 72%
    10:00 +26°C° 0 mm 2 m/s 752 mmHg 67%
    11:00 +28°C° 0 mm 1 m/s 752 mmHg 63%
    12:00 +29°C° 0 mm 1 m/s 752 mmHg 59%
    13:00 +31°C° 0 mm 1 m/s 752 mmHg 55%
    14:00 +31°C° 0 mm 1 m/s 752 mmHg 54%
    15:00 +32°C° 0 mm 2 m/s 752 mmHg 54%
    16:00 +32°C° 0 mm 2 m/s 752 mmHg 54%
    17:00 +31°C° 0 mm 2 m/s 752 mmHg 59%
    18:00 +30°C° 0 mm 3 m/s 752 mmHg 65%
    19:00 +29°C° 0 mm 3 m/s 752 mmHg 70%
    20:00 +27°C° 0 mm 3 m/s 752 mmHg 75%
    21:00 +26°C° 0 mm 2 m/s 752 mmHg 79%
    22:00 +24°C° 0 mm 2 m/s 752 mmHg 84%
    23:00 +23°C° 0 mm 2 m/s 752 mmHg 85%

    25 Iunie, Marţi

    Timp Temperatura Precipitaţii Vânt Presiune Umiditate
    00:00 +21°C° 0 mm 2 m/s 752 mmHg 87%
    01:00 +22°C° 0 mm 1 m/s 752 mmHg 88%
    02:00 +21°C° 0 mm 1 m/s 752 mmHg 88%
    03:00 +21°C° 0 mm 1 m/s 752 mmHg 87%
    04:00 +20°C° 0 mm 1 m/s 752 mmHg 87%
    05:00 +21°C° 0 mm 1 m/s 752 mmHg 84%
    06:00 +22°C° 0 mm 1 m/s 752 mmHg 81%
    07:00 +23°C° 0 mm 1 m/s 753 mmHg 78%
    08:00 +25°C° 0 mm 1 m/s 753 mmHg 72%
    09:00 +27°C° 0 mm 1 m/s 753 mmHg 65%
    10:00 +29°C° 0 mm 1 m/s 753 mmHg 59%
    11:00 +30°C° 0 mm 1 m/s 753 mmHg 56%
    12:00 +31°C° 0 mm 1 m/s 753 mmHg 54%
    13:00 +33°C° 0 mm 1 m/s 753 mmHg 51%
    14:00 +33°C° 0 mm 1 m/s 753 mmHg 51%
    15:00 +34°C° 0 mm 1 m/s 753 mmHg 51%
    16:00 +34°C° 0 mm 1 m/s 753 mmHg 51%
    17:00 +33°C° 0 mm 1 m/s 753 mmHg 57%
    18:00 +32°C° 0 mm 1 m/s 753 mmHg 63%
    19:00 +32°C° 0 mm 1 m/s 753 mmHg 68%
    20:00 +30°C° 0 mm 1 m/s 754 mmHg 73%
    21:00 +28°C° 0 mm 1 m/s 754 mmHg 77%
    22:00 +26°C° 0 mm 1 m/s 754 mmHg 81%
    23:00 +26°C° 0 mm 1 m/s 754 mmHg 82%
    Arată mai mult